KI2K Weather Reports


time (UTC)temp
C
wind
direction
speed
KPH
gust
KPH
rain 1hr
cm
rain 24hr
cm
rain mn
cm
humidity
%
barometer
mb
20260509101210 11 278 0.0 0.0 0.00 0.20 0.20 99 1006.8
20260509100708 11 277 0.0 0.0 0.00 0.20 0.20 99 1006.5
20260509100205 11 278 1.6 1.6 0.00 0.20 0.20 99 1006.4
20260509095701 11 275 0.0 0.0 0.00 0.20 0.20 99 1006.4
20260509095159 11 270 0.0 0.0 0.00 0.20 0.20 99 1006.5
20260509094655 11 275 0.0 0.0 0.00 0.20 0.20 99 1006.5
20260509094152 11 277 0.0 0.0 0.00 0.20 0.20 99 1006.5
20260509093651 11 276 0.0 0.0 0.00 0.20 0.20 99 1006.6
20260509093147 12 273 0.0 0.0 0.00 0.20 0.20 99 1006.6
20260509092646 12 260 1.6 1.6 0.00 0.20 0.20 99 1006.9
20260509092144 11 275 0.0 0.0 0.00 0.20 0.20 99 1006.5
20260509091641 11 279 0.0 0.0 0.00 0.20 0.20 99 1006.7
20260509091137 11 269 0.0 1.6 0.00 0.20 0.20 99 1006.6
20260509090635 11 259 0.0 1.6 0.00 0.20 0.20 99 1006.8
20260509090132 11 263 0.0 0.0 0.00 0.20 0.20 99 1006.8
20260509085629 12 273 0.0 1.6 0.00 0.20 0.20 99 1006.6
20260509085125 12 268 0.0 0.0 0.00 0.20 0.20 99 1006.6
20260509084623 12 277 0.0 1.6 0.00 0.20 0.20 99 1006.9
20260509084120 12 242 1.6 1.6 0.00 0.20 0.20 99 1006.8
20260509083617 12 297 1.6 3.2 0.00 0.20 0.20 99 1007.0
20260509083113 12 299 1.6 1.6 0.00 0.20 0.20 99 1006.7
20260509082610 12 272 3.2 3.2 0.00 0.20 0.20 99 1007.0
20260509082102 12 268 1.6 1.6 0.18 0.20 0.20 99 1007.2
20260509081559 12 270 0.0 0.0 0.18 0.20 0.20 99 1007.0
20260509081056 12 268 1.6 3.2 0.18 0.20 0.20 99 1006.8
20260509080554 12 248 1.6 1.6 0.13 0.18 0.18 99 1006.9
20260509080052 12 267 0.0 0.0 0.13 0.18 0.18 99 1007.1
20260509075549 12 276 0.0 0.0 0.00 0.15 0.15 99 1007.1
20260509075047 12 290 0.0 1.6 0.00 0.15 0.15 99 1007.1
20260509074543 12 317 0.0 0.0 0.00 0.15 0.15 99 1007.0
20260509074040 12 279 0.0 0.0 0.00 0.15 0.15 99 1006.9
20260509073537 12 276 0.0 0.0 0.00 0.15 0.15 99 1007.1
20260509073033 12 267 0.0 0.0 0.00 0.15 0.15 99 1006.9
20260509072529 12 286 0.0 1.6 0.00 0.15 0.15 99 1007.0
20260509072027 12 276 1.6 1.6 0.00 0.15 0.15 99 1006.9
20260509071523 12 307 1.6 1.6 0.00 0.15 0.15 99 1007.0
20260509071021 12 274 1.6 1.6 0.00 0.15 0.15 99 1007.2
20260509070518 12 285 1.6 1.6 0.00 0.15 0.15 99 1007.1
20260509070014 12 273 0.0 0.0 0.00 0.15 0.15 99 1007.4
20260509065509 12 260 1.6 1.6 0.00 0.15 0.15 99 1007.5
20260509065006 12 224 0.0 1.6 0.00 0.15 0.15 99 1007.5
20260509064504 12 268 0.0 1.6 0.00 0.15 0.15 99 1007.5
20260509064002 12 275 0.0 1.6 0.00 0.15 0.15 99 1007.5
20260509063457 12 275 0.0 0.0 0.00 0.15 0.15 99 1007.6
20260509062954 12 277 1.6 1.6 0.18 0.15 0.15 99 1007.5
20260509062451 12 295 3.2 4.8 0.18 0.15 0.15 99 1007.7
20260509061949 12 279 0.0 0.0 0.13 0.13 0.13 99 1007.8
20260509061446 12 276 1.6 1.6 0.13 0.13 0.13 99 1007.8
20260509060943 12 276 0.0 1.6 0.18 0.10 0.10 99 1007.8
20260509060441 12 261 0.0 1.6 0.18 0.10 0.10 99 1007.7
20260509055936 12 240 3.2 3.2 0.18 0.10 0.10 99 1007.9
20260509055431 12 286 0.0 1.6 0.00 0.08 0.08 99 1008.2
20260509054928 12 268 0.0 1.6 0.13 0.08 0.08 99 1008.1
20260509054424 12 266 0.0 1.6 0.13 0.08 0.08 99 1008.3
20260509053923 12 227 1.6 3.2 0.18 0.05 0.05 99 1008.4
20260509053421 12 258 1.6 1.6 0.18 0.05 0.05 99 1008.5
20260509052918 12 281 1.6 1.6 0.18 0.05 0.05 99 1008.5
20260509052415 12 261 1.6 1.6 0.00 0.03 0.03 99 1008.6
20260509051913 12 298 1.6 1.6 0.00 0.03 0.03 99 1008.4
20260509051410 12 265 1.6 1.6 0.00 0.03 0.03 99 1008.6
20260509050907 12 233 0.0 3.2 0.00 0.03 0.03 99 1008.5
20260509050404 12 278 1.6 1.6 0.00 0.03 0.03 99 1008.3
20260509045855 12 265 1.6 1.6 0.00 0.03 0.03 99 1008.6
20260509045352 12 280 1.6 3.2 0.00 0.03 0.03 99 1008.4
20260509044849 12 283 0.0 1.6 0.00 0.03 0.03 99 1008.4
20260509044347 12 280 1.6 3.2 0.00 0.03 0.03 99 1008.5
20260509043844 12 275 1.6 1.6 0.00 0.03 0.03 99 1008.5
20260509043339 12 274 1.6 1.6 0.00 0.03 0.03 99 1008.5
20260509042835 12 198 0.0 1.6 0.18 0.03 0.03 99 1008.3
20260509042332 12 276 0.0 0.0 0.18 0.03 0.03 99 1008.3
20260509041829 12 264 1.6 1.6 0.00 0.00 0.00 99 1008.3
20260509041326 12 276 0.0 1.6 0.00 0.00 0.00 99 1008.6
20260509040824 12 276 0.0 1.6 0.00 0.00 0.00 99 1008.6
20260509040321 12 264 0.0 1.6 0.13 0.00 0.00 99 1008.4
20260509035818 12 282 0.0 1.6 0.13 1.47 1.47 99 1008.5
20260509035315 12 280 1.6 1.6 0.00 1.45 1.45 99 1008.5
20260509034811 12 287 0.0 1.6 0.00 1.45 1.45 99 1008.5
20260509034309 12 264 0.0 1.6 0.00 1.45 1.45 99 1008.8
20260509033806 12 269 0.0 0.0 0.00 1.45 1.45 99 1008.6
20260509033303 12 285 0.0 1.6 0.00 1.45 1.45 99 1008.5
20260509032800 12 266 0.0 1.6 0.00 1.45 1.45 99 1008.5
20260509032257 12 283 1.6 1.6 0.00 1.45 1.45 99 1008.5
20260509031755 12 295 0.0 0.0 0.00 1.45 1.45 99 1008.5
20260509031252 12 268 0.0 1.6 0.00 1.45 1.45 99 1008.4
20260509030749 12 275 0.0 0.0 0.18 1.45 1.45 99 1008.7
20260509030247 12 258 1.6 1.6 0.18 1.45 1.45 99 1008.5
20260509025744 12 279 0.0 0.0 0.13 1.42 1.42 99 1008.5
20260509025239 12 276 0.0 0.0 0.13 1.42 1.42 99 1008.7
20260509024735 12 273 0.0 0.0 0.00 1.40 1.40 99 1008.4
20260509024231 12 273 0.0 0.0 0.18 1.40 1.40 99 1008.5
20260509023729 12 281 0.0 1.6 0.18 1.40 1.40 99 1008.7
20260509023226 12 257 1.6 3.2 0.00 1.37 1.37 99 1008.5
20260509022721 12 261 0.0 0.0 0.13 1.37 1.37 99 1008.7
20260509022219 12 254 1.6 1.6 0.13 1.37 1.37 99 1008.5
20260509021716 12 275 0.0 0.0 0.00 1.35 1.35 99 1008.5
20260509021214 12 271 3.2 3.2 0.18 1.35 1.35 99 1008.7
20260509020711 12 278 1.6 1.6 0.18 1.35 1.35 99 1008.6
20260509020208 12 273 1.6 1.6 0.30 1.35 1.35 99 1008.6
20260509015706 12 288 0.0 1.6 0.13 1.32 1.32 99 1008.7
20260509015204 12 286 1.6 1.6 0.18 1.30 1.30 99 1008.7
20260509014700 12 280 1.6 1.6 0.18 1.30 1.30 99 1008.9
20260509014157 12 277 1.6 3.2 0.00 1.27 1.27 99 1008.8
20260509013654 12 271 1.6 1.6 0.13 1.27 1.27 99 1008.5
20260509013150 12 256 3.2 3.2 0.13 1.27 1.27 99 1008.8
20260509012646 12 328 1.6 1.6 0.18 1.24 1.24 99 1008.5
20260509012143 12 273 0.0 0.0 0.18 1.24 1.24 99 1008.5
20260509011641 12 264 0.0 1.6 0.00 1.22 1.22 99 1008.4
20260509011138 12 295 1.6 3.2 0.00 1.22 1.22 99 1008.5
20260509010636 12 275 0.0 0.0 0.18 1.22 1.22 99 1008.5
20260509010132 12 270 0.0 1.6 0.18 1.22 1.22 99 1008.6
20260509005630 12 277 0.0 0.0 0.13 1.19 1.19 99 1008.5
20260509005126 12 270 3.2 3.2 0.13 1.19 1.19 99 1008.6
20260509004622 12 261 0.0 1.6 0.18 1.17 1.17 99 1008.6
20260509004119 12 282 3.2 3.2 0.18 1.17 1.17 99 1008.4
20260509003618 12 277 0.0 1.6 0.13 1.14 1.14 99 1008.7
20260509003115 12 276 0.0 1.6 0.13 1.14 1.14 99 1008.4
20260509002612 12 280 1.6 1.6 0.18 1.12 1.12 99 1008.4
20260509002109 12 262 0.0 0.0 0.18 1.12 1.12 99 1008.6
20260509001607 12 276 1.6 1.6 0.00 1.09 1.09 99 1008.4
20260509001102 12 273 0.0 0.0 0.13 1.09 1.09 99 1008.4
20260509000601 12 184 0.0 0.0 0.13 1.09 1.09 99 1008.2
20260509000056 12 246 1.6 1.6 0.30 1.07 1.07 99 1008.4
20260508235554 12 267 1.6 3.2 0.48 1.07 1.07 99 1008.5
20260508235050 12 256 1.6 3.2 0.30 1.02 1.02 99 1008.7
20260508234548 12 279 1.6 1.6 0.30 0.99 0.99 99 1008.9
20260508234044 12 271 0.0 0.0 0.48 0.97 0.97 99 1008.9
20260508233544 12 277 0.0 0.0 0.36 0.91 0.91 99 1008.8
20260508233041 12 279 1.6 1.6 0.48 0.89 0.89 99 1008.8
20260508232538 12 277 0.0 1.6 0.30 0.86 0.86 99 1008.9
20260508232035 12 271 1.6 3.2 0.30 0.84 0.84 99 1009.1
20260508231532 12 291 3.2 3.2 0.30 0.81 0.81 99 1008.8
20260508231029 12 276 0.0 0.0 0.30 0.79 0.79 99 1008.7
20260508230526 12 298 1.6 3.2 0.30 0.76 0.76 99 1008.8
20260508230022 12 209 1.6 1.6 0.48 0.74 0.74 99 1008.7
20260508225520 12 280 1.6 1.6 0.61 0.71 0.71 99 1009.2
20260508225017 12 279 0.0 1.6 0.79 0.66 0.66 99 1009.0
20260508224514 12 291 1.6 3.2 0.61 0.61 0.61 99 1009.3
20260508224011 12 291 1.6 1.6 0.30 0.56 0.56 99 1009.4
20260508223509 13 274 0.0 0.0 0.18 0.51 0.51 99 1009.1
20260508223006 12 268 0.0 0.0 0.30 0.51 0.51 98 1008.9
20260508222503 12 277 0.0 0.0 0.30 0.48 0.48 98 1008.9
20260508221959 13 271 0.0 0.0 0.48 0.46 0.46 98 1008.8
20260508221456 13 278 0.0 0.0 0.43 0.43 0.43 98 1008.8
20260508220952 13 274 0.0 0.0 0.30 0.38 0.38 97 1008.8
20260508220448 13 278 0.0 0.0 0.30 0.36 0.36 97 1008.9
20260508215945 13 280 0.0 0.0 0.30 0.33 0.33 97 1009.1
20260508215443 13 280 0.0 0.0 0.30 0.30 0.30 97 1008.8
20260508214938 13 280 0.0 1.6 0.66 0.30 0.30 96 1009.1
20260508214437 13 276 0.0 0.0 0.79 0.25 0.25 96 1009.1
20260508213932 13 279 1.6 1.6 0.48 0.18 0.18 95 1009.4
20260508213430 13 289 0.0 1.6 0.30 0.13 0.13 94 1009.4
20260508212926 13 285 0.0 1.6 0.30 0.10 0.10 93 1009.5
20260508212423 13 275 1.6 1.6 0.43 0.10 0.10 91 1009.1
20260508211918 14 281 1.6 1.6 0.13 0.05 0.05 90 1009.0
20260508211414 14 286 1.6 1.6 0.00 0.03 0.03 88 1008.9
20260508210912 15 277 0.0 0.0 0.00 0.03 0.03 86 1008.8
20260508210408 15 285 0.0 1.6 0.18 0.03 0.03 82 1008.7
20260508205904 16 280 0.0 0.0 0.18 0.03 0.03 78 1008.8
20260508205402 16 285 1.6 1.6 0.00 0.00 0.00 76 1008.8
20260508204858 16 277 1.6 1.6 0.00 0.00 0.00 77 1008.9
20260508204355 16 279 1.6 1.6 0.00 0.00 0.00 77 1008.7
20260508203850 16 280 0.0 1.6 0.00 0.00 0.00 75 1008.7
20260508203347 17 278 0.0 1.6 0.00 0.00 0.00 74 1008.7
20260508202842 17 275 1.6 1.6 0.00 0.00 0.00 70 1008.6
20260508202340 18 304 4.8 8.0 0.00 0.00 0.00 67 1008.4
20260508201837 18 279 1.6 1.6 0.00 0.00 0.00 65 1008.7
20260508201334 18 273 1.6 1.6 0.00 0.00 0.00 64 1008.7
20260508200830 18 300 1.6 3.2 0.00 0.00 0.00 62 1008.7
20260508200327 18 283 1.6 1.6 0.00 0.00 0.00 63 1008.9
20260508195823 18 255 4.8 4.8 0.00 0.00 0.00 62 1008.7
20260508195320 18 279 0.0 1.6 0.00 0.00 0.00 61 1009.0
20260508194816 18 268 0.0 1.6 0.00 0.00 0.00 62 1008.6
20260508194314 18 282 1.6 1.6 0.00 0.00 0.00 61 1008.8
20260508193811 18 282 1.6 1.6 0.00 0.00 0.00 60 1008.8
20260508193307 18 268 1.6 1.6 0.00 0.00 0.00 62 1008.8
20260508192803 18 274 1.6 1.6 0.00 0.00 0.00 61 1008.9
20260508192301 18 273 1.6 1.6 0.00 0.00 0.00 62 1009.0
20260508191758 18 263 3.2 4.8 0.00 0.00 0.00 60 1009.2
20260508191255 18 298 0.0 1.6 0.00 0.00 0.00 62 1009.4
20260508190752 18 216 3.2 4.8 0.00 0.00 0.00 62 1009.5
20260508190248 18 282 3.2 3.2 0.00 0.00 0.00 64 1009.5
20260508185744 18 235 1.6 1.6 0.00 0.00 0.00 63 1009.5
20260508185242 18 243 3.2 4.8 0.00 0.00 0.00 64 1009.9
20260508184739 18 281 1.6 1.6 0.00 0.00 0.00 66 1009.9
20260508184236 17 273 1.6 1.6 0.00 0.00 0.00 64 1009.7
20260508183733 17 278 0.0 1.6 0.00 0.00 0.00 65 1010.0
20260508183229 17 258 1.6 3.2 0.00 0.00 0.00 64 1010.0
20260508182725 17 242 1.6 1.6 0.00 0.00 0.00 64 1010.0
20260508182222 17 296 3.2 4.8 0.00 0.00 0.00 64 1010.5
20260508181718 17 308 1.6 1.6 0.00 0.00 0.00 63 1010.4
20260508181215 17 300 8.0 9.7 0.00 0.00 0.00 63 1010.2
20260508180712 17 275 1.6 3.2 0.00 0.00 0.00 64 1010.3
20260508180209 17 304 1.6 3.2 0.00 0.00 0.00 64 1010.6
20260508175705 17 309 1.6 3.2 0.00 0.00 0.00 64 1010.6
20260508175202 17 251 0.0 1.6 0.00 0.00 0.00 64 1010.5
20260508174700 17 305 3.2 3.2 0.00 0.00 0.00 63 1010.4
20260508174156 17 231 0.0 1.6 0.00 0.00 0.00 65 1010.5
20260508173653 17 247 3.2 4.8 0.00 0.00 0.00 64 1010.4
20260508173149 17 250 3.2 3.2 0.00 0.00 0.00 65 1010.8
20260508172647 17 278 1.6 1.6 0.00 0.00 0.00 64 1010.9
20260508172143 17 265 1.6 1.6 0.00 0.00 0.00 64 1010.9
20260508171640 17 282 4.8 4.8 0.00 0.00 0.00 64 1010.9
20260508171136 17 278 3.2 3.2 0.00 0.00 0.00 64 1011.0
20260508170633 17 269 1.6 1.6 0.00 0.00 0.00 65 1011.0
20260508170131 17 294 1.6 1.6 0.00 0.00 0.00 64 1011.2
20260508165628 17 269 4.8 4.8 0.00 0.00 0.00 61 1011.2
20260508165125 17 283 1.6 1.6 0.00 0.00 0.00 61 1011.3
20260508164621 17 279 4.8 4.8 0.00 0.00 0.00 60 1011.5
20260508164118 17 341 4.8 4.8 0.00 0.00 0.00 60 1011.4
20260508163615 18 270 4.8 8.0 0.00 0.00 0.00 61 1011.4
20260508163112 18 282 4.8 4.8 0.00 0.00 0.00 60 1011.7
20260508162609 18 253 3.2 3.2 0.00 0.00 0.00 61 1011.7
20260508162106 17 258 8.0 12.9 0.00 0.00 0.00 61 1011.9
20260508161603 18 297 4.8 4.8 0.00 0.00 0.00 59 1011.9
20260508161100 18 258 4.8 4.8 0.00 0.00 0.00 61 1011.9
20260508160559 18 245 3.2 3.2 0.00 0.00 0.00 60 1012.0
20260508160055 18 221 4.8 8.0 0.00 0.00 0.00 58 1012.0
20260508155552 18 283 3.2 3.2 0.00 0.00 0.00 61 1011.9
20260508155049 18 207 3.2 3.2 0.00 0.00 0.00 59 1011.9
20260508154546 17 264 3.2 3.2 0.00 0.00 0.00 65 1012.1
20260508154043 17 299 3.2 3.2 0.00 0.00 0.00 63 1012.2
20260508153540 17 279 4.8 8.0 0.00 0.00 0.00 62 1012.1
20260508153036 17 305 6.4 9.7 0.00 0.00 0.00 61 1012.1
20260508152534 17 261 1.6 1.6 0.00 0.00 0.00 64 1011.9
20260508152029 17 311 8.0 11.3 0.00 0.00 0.00 61 1012.1
20260508151526 17 265 3.2 4.8 0.00 0.00 0.00 62 1012.0
20260508151022 17 271 3.2 3.2 0.00 0.00 0.00 60 1012.0
20260508150520 16 288 1.6 1.6 0.00 0.00 0.00 62 1012.1
20260508150015 17 282 3.2 3.2 0.00 0.00 0.00 62 1012.0
20260508145512 17 335 3.2 4.8 0.00 0.00 0.00 60 1012.2
20260508145008 18 210 6.4 9.7 0.00 0.00 0.00 60 1012.3
20260508144506 17 299 8.0 12.9 0.00 0.00 0.00 60 1012.2
20260508144004 17 226 6.4 9.7 0.00 0.00 0.00 61 1012.4
20260508143501 17 343 4.8 4.8 0.00 0.00 0.00 61 1012.6
20260508142957 16 292 4.8 4.8 0.00 0.00 0.00 62 1012.4
20260508142454 16 292 6.4 8.0 0.00 0.00 0.00 61 1012.4
20260508141950 16 270 4.8 9.7 0.00 0.00 0.00 62 1012.5
20260508141447 16 277 4.8 4.8 0.00 0.00 0.00 63 1012.6
20260508140945 16 271 6.4 9.7 0.00 0.00 0.00 62 1012.5
20260508140442 16 328 4.8 4.8 0.00 0.00 0.00 62 1012.6
20260508135937 15 302 6.4 9.7 0.00 0.00 0.00 63 1012.6
20260508135434 15 229 6.4 11.3 0.00 0.00 0.00 63 1012.3
20260508134931 15 284 4.8 8.0 0.00 0.00 0.00 64 1012.6
20260508134427 15 298 4.8 8.0 0.00 0.00 0.00 63 1012.8
20260508133924 15 271 1.6 3.2 0.00 0.00 0.00 64 1012.7
20260508133422 15 238 4.8 8.0 0.00 0.00 0.00 63 1012.7
20260508132918 15 326 4.8 8.0 0.00 0.00 0.00 64 1012.7
20260508132416 15 248 3.2 3.2 0.00 0.00 0.00 65 1012.6
20260508131913 13 290 4.8 4.8 0.00 0.00 0.00 66 1012.7
20260508131408 13 312 8.0 11.3 0.00 0.00 0.00 65 1012.9
20260508130906 13 293 4.8 8.0 0.00 0.00 0.00 66 1012.9
20260508130402 13 301 1.6 1.6 0.00 0.00 0.00 68 1012.8
20260508125858 13 284 6.4 8.0 0.00 0.00 0.00 66 1012.8
20260508125354 13 264 3.2 4.8 0.00 0.00 0.00 67 1012.7
20260508124852 12 222 4.8 4.8 0.00 0.00 0.00 68 1012.8
20260508124350 12 262 3.2 3.2 0.00 0.00 0.00 69 1013.0
20260508123848 12 252 3.2 3.2 0.00 0.00 0.00 68 1012.7
20260508123346 12 272 3.2 3.2 0.00 0.00 0.00 68 1012.9
20260508122841 12 270 9.7 16.1 0.00 0.00 0.00 68 1012.7
20260508122333 11 253 1.6 3.2 0.00 0.00 0.00 70 1012.8
20260508121830 11 302 3.2 3.2 0.00 0.00 0.00 70 1012.7
20260508121329 11 257 3.2 3.2 0.00 0.00 0.00 71 1012.9
20260508120826 11 241 1.6 3.2 0.00 0.00 0.00 71 1012.9
20260508120324 11 246 6.4 9.7 0.00 0.00 0.00 70 1012.6
20260508115821 11 283 6.4 9.7 0.00 0.00 0.00 71 1012.8
20260508115318 10 273 1.6 1.6 0.00 0.00 0.00 71 1012.6
20260508114815 10 257 1.6 1.6 0.00 0.00 0.00 73 1012.8
20260508114312 10 293 1.6 3.2 0.00 0.00 0.00 73 1012.6
20260508113808 10 208 4.8 4.8 0.00 0.00 0.00 74 1012.7
20260508113307 10 261 1.6 1.6 0.00 0.00 0.00 73 1012.7
20260508112803 9 312 4.8 4.8 0.00 0.00 0.00 74 1012.7
20260508112300 9 309 3.2 3.2 0.00 0.00 0.00 74 1012.5
20260508111756 9 317 1.6 3.2 0.00 0.00 0.00 75 1012.5
20260508111254 9 274 1.6 1.6 0.00 0.00 0.00 75 1012.4
20260508110750 9 305 1.6 3.2 0.00 0.00 0.00 75 1012.6
20260508110248 8 281 1.6 3.2 0.00 0.00 0.00 75 1012.6
20260508105742 8 251 1.6 1.6 0.00 0.00 0.00 75 1012.5
20260508105239 8 277 1.6 3.2 0.00 0.00 0.00 75 1012.5
20260508104736 8 246 1.6 1.6 0.00 0.00 0.00 76 1012.6
20260508104233 8 261 1.6 1.6 0.00 0.00 0.00 76 1012.3
20260508103730 8 283 1.6 1.6 0.00 0.00 0.00 76 1012.4
20260508103227 8 260 1.6 1.6 0.00 0.00 0.00 75 1012.4
20260508102724 8 279 1.6 3.2 0.00 0.00 0.00 75 1012.5
20260508102222 8 285 1.6 1.6 0.00 0.00 0.00 76 1012.5
20260508101719 8 266 0.0 1.6 0.00 0.00 0.00 75 1012.3